When you browse on this site, cookies collect data to enhance your experience and personalize the content and advertising you see.
Visit our Privacy Policy to learn more. By continuing to use the site, you agree to this use of cookies and data.
  • In Sweden
  • List of Countries
  • For 7 days
  • Water Temperature
  • Satellite Maps
  • Weather Map
  • Weather Widgets
  • user-avatar
    Login

    Hourly Weather Ilinka

    Today, 22 April, Monday

    Time Temperature Precipitation Wind Pressure Humidity
    00:00 +6°C° 0 mm 1 mps 753 mmHg 53%
    01:00 +5°C° 0 mm 2 mps 753 mmHg 55%
    02:00 +5°C° 0 mm 2 mps 753 mmHg 56%
    03:00 +4°C° 0 mm 2 mps 753 mmHg 59%
    04:00 +4°C° 0 mm 2 mps 753 mmHg 61%
    05:00 +4°C° 0 mm 2 mps 753 mmHg 63%
    06:00 +4°C° 0 mm 2 mps 753 mmHg 60%
    07:00 +5°C° 0 mm 2 mps 753 mmHg 57%
    08:00 +6°C° 0 mm 2 mps 753 mmHg 55%
    09:00 +7°C° 0 mm 3 mps 753 mmHg 49%
    10:00 +8°C° 0 mm 3 mps 753 mmHg 44%
    11:00 +9°C° 0 mm 3 mps 753 mmHg 39%
    12:00 +10°C° 0 mm 3 mps 753 mmHg 38%
    13:00 +10°C° 0 mm 3 mps 753 mmHg 37%
    14:00 +10°C° 0 mm 2 mps 752 mmHg 36%
    15:00 +10°C° 0 mm 2 mps 752 mmHg 36%
    16:00 +10°C° 0 mm 2 mps 752 mmHg 37%
    17:00 +10°C° 0 mm 2 mps 752 mmHg 37%
    18:00 +9°C° 0 mm 2 mps 752 mmHg 40%
    19:00 +9°C° 0 mm 2 mps 752 mmHg 43%
    20:00 +9°C° 0 mm 1 mps 752 mmHg 46%
    21:00 +7°C° 0 mm 2 mps 751 mmHg 48%
    22:00 +7°C° 0 mm 2 mps 751 mmHg 50%
    23:00 +6°C° 0 mm 2 mps 751 mmHg 52%

    Tomorrow, 23 April, Tuesday

    Time Temperature Precipitation Wind Pressure Humidity
    00:00 +5°C° 0 mm 2 mps 751 mmHg 54%
    01:00 +5°C° 0 mm 2 mps 751 mmHg 55%
    02:00 +5°C° 0 mm 2 mps 750 mmHg 57%
    03:00 +3°C° 0 mm 3 mps 750 mmHg 59%
    04:00 +3°C° 0 mm 3 mps 750 mmHg 61%
    05:00 +2°C° 0 mm 3 mps 750 mmHg 63%
    06:00 +4°C° 0 mm 3 mps 749 mmHg 60%
    07:00 +5°C° 0 mm 4 mps 749 mmHg 58%
    08:00 +6°C° 0 mm 4 mps 749 mmHg 55%
    09:00 +7°C° 0 mm 4 mps 749 mmHg 57%
    10:00 +8°C° 0 mm 5 mps 748 mmHg 58%
    11:00 +9°C° 0 mm 5 mps 748 mmHg 60%
    12:00 +10°C° 0 mm 5 mps 748 mmHg 59%
    13:00 +10°C° 0 mm 5 mps 747 mmHg 58%
    14:00 +12°C° 0 mm 4 mps 747 mmHg 57%
    15:00 +12°C° 0 mm 4 mps 747 mmHg 54%
    16:00 +13°C° 0 mm 4 mps 746 mmHg 51%
    17:00 +13°C° 0 mm 4 mps 746 mmHg 48%
    18:00 +13°C° 0.1 mm 4 mps 746 mmHg 51%
    19:00 +12°C° 0.1 mm 3 mps 746 mmHg 55%
    20:00 +12°C° 0.1 mm 2 mps 746 mmHg 59%
    21:00 +10°C° 0.1 mm 3 mps 746 mmHg 61%
    22:00 +10°C° 0.1 mm 3 mps 746 mmHg 62%
    23:00 +9°C° 0.1 mm 3 mps 746 mmHg 63%

    Day after tomorrow, 24 April, Wednesday

    Time Temperature Precipitation Wind Pressure Humidity
    00:00 +9°C° 0 mm 3 mps 746 mmHg 64%
    01:00 +8°C° 0 mm 3 mps 746 mmHg 66%
    02:00 +7°C° 0 mm 2 mps 746 mmHg 67%
    03:00 +7°C° 0 mm 2 mps 746 mmHg 68%
    04:00 +7°C° 0 mm 2 mps 746 mmHg 68%
    05:00 +6°C° 0 mm 2 mps 746 mmHg 69%
    06:00 +7°C° 0 mm 2 mps 746 mmHg 66%
    07:00 +8°C° 0 mm 2 mps 746 mmHg 62%
    08:00 +9°C° 0 mm 2 mps 746 mmHg 59%
    09:00 +10°C° 0 mm 2 mps 746 mmHg 57%
    10:00 +12°C° 0 mm 2 mps 746 mmHg 55%
    11:00 +13°C° 0 mm 2 mps 746 mmHg 53%
    12:00 +13°C° 0.1 mm 2 mps 745 mmHg 50%
    13:00 +14°C° 0.1 mm 2 mps 745 mmHg 47%
    14:00 +15°C° 0.1 mm 2 mps 745 mmHg 44%
    15:00 +14°C° 0.4 mm 2 mps 744 mmHg 47%
    16:00 +14°C° 0.4 mm 2 mps 744 mmHg 51%
    17:00 +13°C° 0.4 mm 2 mps 744 mmHg 54%
    18:00 +12°C° 0.3 mm 2 mps 744 mmHg 59%
    19:00 +12°C° 0.3 mm 1 mps 744 mmHg 64%
    20:00 +10°C° 0.3 mm 0 mps 744 mmHg 68%
    21:00 +11°C° 0.4 mm 1 mps 744 mmHg 70%
    22:00 +9°C° 0.4 mm 2 mps 744 mmHg 72%
    23:00 +9°C° 0.4 mm 3 mps 743 mmHg 74%

    25 April, Thursday

    Time Temperature Precipitation Wind Pressure Humidity
    00:00 +8°C° 0.2 mm 3 mps 743 mmHg 74%
    01:00 +8°C° 0.2 mm 3 mps 743 mmHg 75%
    02:00 +7°C° 0.2 mm 3 mps 743 mmHg 76%
    03:00 +5°C° 0 mm 3 mps 743 mmHg 78%
    04:00 +5°C° 0 mm 3 mps 743 mmHg 80%
    05:00 +4°C° 0 mm 3 mps 743 mmHg 82%
    06:00 +5°C° 0 mm 3 mps 743 mmHg 76%
    07:00 +6°C° 0 mm 4 mps 743 mmHg 70%
    08:00 +6°C° 0 mm 4 mps 743 mmHg 63%
    09:00 +8°C° 0 mm 4 mps 743 mmHg 57%
    10:00 +10°C° 0 mm 4 mps 744 mmHg 50%
    11:00 +11°C° 0 mm 4 mps 744 mmHg 43%
    12:00 +11°C° 0 mm 4 mps 743 mmHg 43%
    13:00 +11°C° 0 mm 4 mps 743 mmHg 42%
    14:00 +12°C° 0 mm 4 mps 743 mmHg 41%
    15:00 +11°C° 0.4 mm 4 mps 743 mmHg 48%
    16:00 +10°C° 0.4 mm 4 mps 743 mmHg 55%
    17:00 +8°C° 0.4 mm 4 mps 743 mmHg 61%
    18:00 +7°C° 0.6 mm 5 mps 743 mmHg 66%
    19:00 +5°C° 0.6 mm 6 mps 744 mmHg 70%
    20:00 +4°C° 0.6 mm 7 mps 744 mmHg 74%
    21:00 +4°C° 0.1 mm 7 mps 745 mmHg 70%
    22:00 +3°C° 0.1 mm 6 mps 745 mmHg 67%
    23:00 +3°C° 0.1 mm 6 mps 745 mmHg 63%

    26 April, Friday

    Time Temperature Precipitation Wind Pressure Humidity
    00:00 +2°C° 0 mm 5 mps 746 mmHg 61%
    01:00 +1°C° 0 mm 5 mps 746 mmHg 59%
    02:00 0°C° 0 mm 4 mps 746 mmHg 56%
    03:00 -1°C° 0 mm 4 mps 747 mmHg 58%
    04:00 0°C° 0 mm 3 mps 747 mmHg 59%
    05:00 -1°C° 0 mm 3 mps 747 mmHg 60%
    06:00 +1°C° 0 mm 2 mps 748 mmHg 53%
    07:00 +2°C° 0 mm 2 mps 748 mmHg 47%
    08:00 +3°C° 0 mm 2 mps 748 mmHg 40%
    09:00 +4°C° 0 mm 2 mps 748 mmHg 36%
    10:00 +6°C° 0 mm 1 mps 747 mmHg 33%
    11:00 +7°C° 0 mm 1 mps 747 mmHg 30%
    12:00 +7°C° 0 mm 2 mps 747 mmHg 32%
    13:00 +7°C° 0 mm 3 mps 746 mmHg 34%
    14:00 +7°C° 0 mm 5 mps 746 mmHg 36%
    15:00 +7°C° 0.3 mm 5 mps 746 mmHg 45%
    16:00 +6°C° 0.3 mm 5 mps 746 mmHg 54%
    17:00 +5°C° 0.3 mm 5 mps 746 mmHg 63%
    18:00 +3°C° 0.3 mm 6 mps 746 mmHg 63%
    19:00 +2°C° 0.3 mm 7 mps 747 mmHg 62%
    20:00 0°C° 0.3 mm 8 mps 747 mmHg 61%
    21:00 -1°C° 0 mm 7 mps 748 mmHg 64%
    22:00 -2°C° 0 mm 6 mps 748 mmHg 67%
    23:00 -3°C° 0 mm 6 mps 748 mmHg 70%

    27 April, Saturday

    Time Temperature Precipitation Wind Pressure Humidity
    00:00 -2°C° 0 mm 5 mps 749 mmHg 74%
    01:00 -4°C° 0 mm 5 mps 749 mmHg 79%
    02:00 -3°C° 0 mm 4 mps 749 mmHg 84%
    03:00 -4°C° 0 mm 5 mps 749 mmHg 83%
    04:00 -2°C° 0 mm 5 mps 750 mmHg 82%
    05:00 -2°C° 0 mm 5 mps 750 mmHg 81%
    06:00 -2°C° 0 mm 5 mps 750 mmHg 78%
    07:00 -2°C° 0 mm 4 mps 751 mmHg 75%
    08:00 -1°C° 0 mm 4 mps 751 mmHg 72%
    09:00 0°C° 0 mm 4 mps 751 mmHg 66%
    10:00 +2°C° 0 mm 5 mps 751 mmHg 59%
    11:00 +3°C° 0 mm 5 mps 751 mmHg 52%
    12:00 +5°C° 0 mm 6 mps 751 mmHg 44%
    13:00 +7°C° 0 mm 6 mps 750 mmHg 36%
    14:00 +8°C° 0 mm 7 mps 749 mmHg 28%
    15:00 +7°C° 0 mm 8 mps 749 mmHg 28%
    16:00 +9°C° 0 mm 8 mps 748 mmHg 28%
    17:00 +8°C° 0 mm 9 mps 748 mmHg 28%
    18:00 +9°C° 0 mm 8 mps 747 mmHg 32%
    19:00 +9°C° 0 mm 8 mps 746 mmHg 35%
    20:00 +9°C° 0 mm 7 mps 746 mmHg 39%
    21:00 +9°C° 0.1 mm 7 mps 745 mmHg 46%
    22:00 +9°C° 0.1 mm 7 mps 745 mmHg 54%
    23:00 +8°C° 0.1 mm 7 mps 745 mmHg 61%
    Show more